Regional Weather Roundup
Issued by NWS

Home | Current Version | Previous Version | Text Only | Print | Product List | Glossary On
Versions: 1 2 3 4 5 6 7 8 9 10 11 12 13 14 15 16 17 18 19 20 21 22 23 24 25 26 27 28 29 30 31 32 33 34 35 36 37 38 39 40 41 42 43 44 45 46 47 48 49 50
633
ASUS42 KTBW 122316
RWRFL
FLORIDA REGIONAL WEATHER ROUNDUP
NATIONAL WEATHER SERVICE TAMPA BAY RUSKIN FL
600 PM EST FRI FEB 12 2016

NOTE: "FAIR" INDICATES FEW OR NO CLOUDS BELOW 12,000 FEET WITH NO
SIGNIFICANT WEATHER AND/OR OBSTRUCTIONS TO VISIBILITY.


FLZ001>010-012>015-112-114-115-130000-
PANHANDLE FLORIDA

CITY           SKY/WX    TMP DP  RH WIND       PRES   REMARKS
PENSACOLA      CLEAR     69  56  62 W12       30.14R
PENSACOLA NAS  PTCLDY    67  55  65 VRB6      30.15R
MILTON NAS     PTCLDY    71  50  47 NW10      30.13
CRESTVIEW      CLEAR     71  48  43 W8        30.14R
DUKE FIELD     PTCLDY    72  49  45 NW8       30.12R
VALPARAISO     CLEAR     67  57  71 W13       30.13R
MARY ESTHER    CLEAR     65  56  75 SW9       30.13R
TRI COUNTY     FAIR      69  50  50 W3        30.12R
PANAMA CITY    FAIR      65  57  75 SW13      30.12R
TYNDALL AFB    CLEAR     64  59  83 W13       30.15R
APALACHICOLA   PTCLDY    65  59  81 W14       30.16S

STATION/POSITION SKY/WX   TEMP    WIND        PRES    WAVE   SWELL
                          AIR SEA DIR/SP/G            HT/PER HT/PER
                          (F)     (DEG/KT/KT) (MB)    (FT/S) (FT/S)
30.1N   87.6W              65 66  250/ 16/ 19 1020.6R   3/ 5
28.8N   86.0W              68 70  280/ 16/ 17 1022.9R   4/ 5
PANAMA CITY BEAC           63 63  260/ 18/ 21 1020.6S
CAPE SAN BLAS    NOT AVBL
TOWER C          NOT AVBL
28.5N   84.5W              69 67  260/ 14/ 17 1022.4R   4/ 6

$$
FLZ011-016>038-118-127-128-134-139-239-130000-
NORTH FLORIDA

CITY           SKY/WX    TMP DP  RH WIND       PRES   REMARKS
MARIANNA       CLEAR     71  50  47 W9        30.10R
TALLAHASSEE    PTCLDY    70  52  52 SW13      30.10S
PERRY          CLEAR     66  56  70 SW14G22   30.13S
LIVE OAK         N/A     70  55  60 SW13G21   30.12S
CROSS CITY       N/A     66  57  72 W14G22    30.16R
LAKE CITY      FAIR      66  54  63 W17       30.11F
GAINESVILLE    CLEAR     66  53  63 W20G26    30.14R
WILLISTON      MOCLDY    68  57  68 SW12      30.17S
KEYSTONE HEIGH FAIR      68  46  45 W15G22    30.13R
PALATKA        FAIR      68  52  56 W17G28    30.13R
MAYPORT NAS    PTCLDY    70  49  47 SW15G22   30.07R
JACKSONVILLE   PTCLDY    70  50  49 SW20G30   30.07R
JAX NAS        PTCLDY    72  48  42 W20G32    30.09R
JAX CRAIG      CLEAR     71  48  43 W16G26    30.08R
JAX CECIL      CLEAR     68  50  52 W14G29    30.10R
FERNANDINA BEA FAIR      72  48  43 SW12G18   30.05S
ST AUGUSTINE   CLEAR     70  50  49 W13G24    30.11R
PALM COAST     CLEAR     68  52  56 SW17      30.13R

STATION/POSITION SKY/WX   TEMP    WIND        PRES    WAVE   SWELL
                          AIR SEA DIR/SP/G            HT/PER HT/PER
                          (F)     (DEG/KT/KT) (MB)    (FT/S) (FT/S)
SHELL POINT                68     260/ 11/ 15 1018.9
KEATON BEACH               60     250/ 17/ 18 1020.5F
CEDAR KEY                  60     240/  7/  9 1022.4S
FERNANDINA                 71 57  230/ 10/ 16 1017.5R
30.7N   81.3W                 56                N/A     2/ 5
MAYPORT                    72 57  250/ 13/ 19 1018.0R
31.4N   80.9W              58 54  230/  2/  4 1017.5R   2/ 6   2/ 6
ST AUGUSTINE               69 59  250/ 15/ 20 1020.0R

$$
FLZ040-043>046-052-053-057-058-063-144-130000-
INTERIOR CENTRAL FLORIDA

CITY           SKY/WX    TMP DP  RH WIND       PRES   REMARKS
OCALA          PTCLDY    66  52  59 W17G23    30.17S
THE VILLAGES     N/A     68  55  64 SW13      30.08S
LEESBURG       CLEAR     67  52  58 W14G22    30.18S
SANFORD        CLEAR     69  49  48 W16       30.16R
ORLANDO EXEC   CLEAR     71  49  45 W16G23    30.17R
ORLANDO INTL   PTCLDY    70  46  42 W13       30.18R
KISSIMMEE      PTCLDY    73  46  38 W14       30.19R
WINTER HAVEN   CLEAR     69  50  50 W10       30.21R
LAKELAND       CLEAR    N/A N/A N/A SW9       30.21S
BARTOW         FAIR      66  52  59 SW12      30.21S
OKEECHOBEE     CLEAR     66  45  45 S6        30.21S

$$
FLZ041-047-054-059-064-141-147-130000-
EAST CENTRAL FLORIDA

CITY           SKY/WX    TMP DP  RH WIND       PRES   REMARKS
ORMOND BEACH   CLEAR     68  50  52 W17G25    30.13S
DAYTONA BEACH  PTCLDY    68  50  52 W16       30.14R
DELAND           N/A     68  50  52 SW10G20   30.16S
NEW SMYRNA BEA CLEAR     70  50  49 W23G31    30.13S
JFK SPACE CTR  CLEAR     69  50  50 SW10      30.14S
TITUSVILLE     CLEAR     70  46  43 SW17      30.16S
CAPE CANAVERAL CLEAR     70  47  43 SW10      30.14S
PATRICK AFB    CLEAR     70  48  45 SW12      30.16S
MELBOURNE      CLEAR     70  44  39 SW8       30.17S
VERO BEACH     CLEAR     70  41  34 SW7       30.20R
FT PIERCE      CLEAR     67  43  41 S6        30.19F
STUART         CLEAR     73  36  25 W8        30.22R

STATION/POSITION SKY/WX   TEMP    WIND        PRES    WAVE   SWELL
                          AIR SEA DIR/SP/G            HT/PER HT/PER
                          (F)     (DEG/KT/KT) (MB)    (FT/S) (FT/S)
28.5N   80.2W              69 75  200/ 16/ 19 1021.4R
28.9N   78.5W              70 72              1021.2R
TRIDENT PIER               72 63  230/ 10/ 13 1021.0S
28.4N   80.5W                 64                N/A     1/10
27.5N   80.2W                 70                N/A     1/ 7

$$
FLZ050-056-061-142-242-148-248-149-249-151-251-155-255-
160-260-130000-
WEST CENTRAL FLORIDA

CITY           SKY/WX    TMP DP  RH WIND       PRES   REMARKS
CRYSTAL RIVER  CLOUDY    64  55  72 SW7       30.20R
INVERNESS      FAIR      64  55  72 SW7       30.19F
BROOKSVILLE    CLEAR     66  54  65 W12       30.21S
ZEPHYRHILLS    FAIR      67  52  59 W8        30.21S
CLEARWATER AIR FAIR      64  54  68 SW6       30.22S
ST PETE CLEARW CLEAR     65  54  67 W10       30.22S
TAMPA INTL     PTCLDY    64  56  75 SW7       30.22S
TAMPA EXEC     CLEAR     70  54  56 SW5       30.22S
PLANT CITY     CLEAR     68  57  68 SW8       30.23R
MACDILL AFB    CLEAR     64  60  87 SW8       30.22S
PETER O KNIGHT CLEAR     68  57  68 W5        30.22S
ST PETERSBURG  CLEAR     65  54  67 SW7       30.21S
SARASOTA       CLEAR     63  55  75 SW7       30.22S
VENICE         FAIR      63  55  77 W3        30.25S

STATION/POSITION SKY/WX   TEMP    WIND        PRES    WAVE   SWELL
                          AIR SEA DIR/SP/G            HT/PER HT/PER
                          (F)     (DEG/KT/KT) (MB)    (FT/S) (FT/S)
CEDAR KEY                  60     240/  7/  9 1022.4S
28.5N   84.5W              69 67  260/ 14/ 17 1022.4R   4/ 6
27.3N   84.2W                 71                N/A     2/ 6
CLEARWATER BEACH           61 58  190/ 12/ 13 1023.2F
MIDDLE TAMPA BAY           61     240/  8/  8 1023.8S
VENICE                     65 63  240/  2/  2 1023.5S

$$
FLZ066-069-070-075>078-162-262-165-265-130000-
SOUTHWEST FLORIDA AND KEYS

CITY           SKY/WX    TMP DP  RH WIND       PRES   REMARKS
PUNTA GORDA    CLEAR     67  51  56 W8        30.24S
FT MYERS       CLEAR     67  37  33 NW12      30.23R
SOUTHWEST INTL CLEAR     68  38  33 NW8       30.23R
NAPLES         CLEAR     66  50  56 NW8       30.23R
MARCO ISLAND   CLEAR     66  45  45 S6        30.22S
MARATHON       CLEAR     68  59  73 NE7       30.20S
KEY WEST NAS   PTCLDY    68  59  73 N9        30.21R
KEY WEST INTL  CLEAR     69  60  73 N9        30.21R

STATION/POSITION SKY/WX   TEMP    WIND        PRES    WAVE   SWELL
                          AIR SEA DIR/SP/G            HT/PER HT/PER
                          (F)     (DEG/KT/KT) (MB)    (FT/S) (FT/S)
VENICE                     65 63  240/  2/  2 1023.5S
NAPLES                        66              1023.3R
26.0N   85.6W              72 80  340/  6/  8 1024.4R   1/ 5   2/ 5
DRY TORTUGAS     NOT AVBL
SAND KEY                   67      40/ 14/ 16 1023.0R
LONG KEY                   67 65   40/  7/  8 1023.3F
MOLASSES REEF              71 77   80/  7/  8 1022.6R

$$
FLZ067-068-071>074-168-172>174-130000-
SOUTHEAST FLORIDA

CITY           SKY/WX    TMP DP  RH WIND       PRES   REMARKS
W PALM BEACH   PTCLDY    69  54  58 S7        30.21S
BOCA RATON     CLEAR     68  55  64 SE3       30.21R
FT LAUDER-EXEC PTCLDY    69  55  60 E7        30.20R
FT LAUDERDALE  PTCLDY    70  56  61 SE7       30.20R
POMPANO BEACH  CLEAR     70  59  68 SE5       30.21R
PEMBROKE PINES CLEAR     70  55  59 SE7       30.22R
OPA LOCKA      CLEAR     70  55  59 SE6       30.21R
MIAMI          PTCLDY    69  55  60 SE7       30.21R
WEST KENDALL   CLEAR     69  52  54 SE7       30.21R
HOMESTEAD      CLEAR     69  54  59 E7        30.20S

STATION/POSITION SKY/WX   TEMP    WIND        PRES    WAVE   SWELL
                          AIR SEA DIR/C1F1M1C2F2M2C3F3C4F4M3C5F5M4C6F6M5C7F7M6C8!



USA.gov is the U.S. government's official web portal to all federal, state and local government web resources and services.